sat.trackr.live / text

‹ back to catalog

STARLINK-30868

NORAD 58390 · 2023-178S

PAYLOAD ACTIVE UNKNOWN

§ Identity

Operator
Country
US
Launch date
2023-11-20
Launch site
AFWTR
Launch vehicle
Mass (kg)
RCS (m²)

Purposes: comms

External: N2YO · Heavens-Above · Gunter

§ Orbital elements

Epoch: 2026-05-24T23:47:37.658976Z

Period
93.85 min
Inclination
53.1604°
Eccentricity
0.0000668
Mean motion
15.34370536 rev/d
Perigee alt
462.3 km
Apogee alt
463.2 km
Semi-major
6,840.9 km
B*
1.3396e-4
RAAN
5.9460°
Arg perigee
71.0594°
Mean anomaly
289.0481°
Rev number
14,158

§ Raw data

STARLINK-308681 58390U 23178S   26144.99140809  .00004149  00000+0  13396-3 0  99952 58390  53.1604   5.9460 0000668  71.0594 289.0481 15.34370536141584

JSON: /api/v1/satellites/58390 · /tle

For live sub-satellite position, see the globe view (requires WebGL).

§ Visibility from observer

Set your observer location to see the next 7 days of passes ≥ 10°. The values pass through the URL so the page stays shareable.

No JS? Fill the form by hand. The geolocation button needs JavaScript.